This demonstration page uses our WeatherBlox Daily Observations layout. Learn more.

Left ArrowRight Arrow

36.17497, -115.13722

Hourly Observations for June 23, 2022

Temp ( °F °C ) Dew Point ( °F °C ) Humidity (%) Winds ( mph kmh ) Pressure ( in mb ) Visibility ( mi km ) Precip ( " mm )
12:53 am 00:53 Clear 81 27.2 46 7.8 29 29 W 6 9 29.93 1014 10 16 0.00 0.00
1:53 am 01:53 Clear 77 25 53 11.7 43 43 SW 3 6 29.92 1013 10 16 0.00 0.00
2:53 am 02:53 Clear 76 24.4 53 11.7 45 45 Calm 29.92 1013 10 16 0.00 0.00
3:53 am 03:53 Clear 78 25.6 46 7.8 32 32 WNW 13 20 29.90 1013 10 16 0.00 0.00
4:53 am 04:53 Clear 79 26.1 47 8.3 32 32 W 9 15 29.91 1013 10 16 0.00 0.00
5:53 am 05:53 Sunny 76 24.4 48 8.9 37 37 Calm 29.92 1013 10 16 0.00 0.00
6:53 am 06:53 Sunny 80 26.7 47 8.3 31 31 NW 10 17 29.93 1014 10 16 0.00 0.00
7:53 am 07:53 Sunny 83 28.3 47 8.3 28 28 NW 10 17 29.93 1013 10 16 0.00 0.00
8:53 am 08:53 Sunny 87 30.6 48 8.9 26 26 NNW 9 15 29.92 1013 10 16 0.00 0.00
9:53 am 09:53 Sunny 90 32.2 47 8.3 23 23 N 3 6 29.91 1013 10 16 0.00 0.00
10:53 am 10:53 Sunny 92 33.3 46 7.8 21 21 Calm 29.89 1012 10 16 0.00 0.00
11:53 am 11:53 Sunny 93 33.9 45 7.2 19 19 SE 9 15 29.88 1012 10 16 0.00 0.00
12:53 pm 12:53 Sunny 96 35.6 46 7.8 18 18 ESE 8 13 29.84 1010 10 16 0.00 0.00
1:53 pm 13:53 Sunny 98 36.7 46 7.8 17 17 undefined N/A 29.81 1009 10 16 0.00 0.00
2:53 pm 14:53 Mostly Sunny 101 38.3 44 6.7 14 14 SW 13 20 29.77 1008 10 16 0.00 0.00
3:53 pm 15:53 Sunny 101 38.3 44 6.7 14 14 WSW 12 19 29.75 1007 10 16 0.00 0.00
4:53 pm 16:53 Sunny 101 38.3 45 7.2 15 15 W 22 35 29.74 1007 10 16 0.00 0.00
5:53 pm 17:53 Sunny 99 37.2 45 7.2 16 16 W 17 28 29.73 1007 10 16 0.00 0.00
6:53 pm 18:53 Sunny 98 36.7 42 5.6 15 15 W 14 22 29.73 1007 10 16 0.00 0.00
7:53 pm 19:53 Sunny 96 35.6 41 5 15 15 W 16 26 29.74 1007 10 16 0.00 0.00
8:53 pm 20:53 Clear 94 34.4 43 6.1 17 17 W 12 19 29.76 1008 10 16 0.00 0.00
9:53 pm 21:53 Clear 93 33.9 43 6.1 18 18 W 8 13 29.78 1009 10 16 0.00 0.00
10:53 pm 22:53 Clear 91 32.8 43 6.1 19 19 W 3 6 29.79 1009 10 16 0.00 0.00
11:53 pm 23:53 Clear 87 30.6 42 5.6 21 21 NNW 18 30 29.79 1009 10 16 0.00 0.00

Powered by AerisWeather